| time (UTC) | temp C | wind direction | speed KPH | gust KPH | rain 1hr cm | rain 24hr cm | rain mn cm | humidity % | barometer mb |
| 20260831115318 | 20 | 124 | 0.0 | 0.0 | 0.00 | 0.00 | 0.00 | 99 | 1016.5 |
| 20260831114817 | 20 | 122 | 0.0 | 0.0 | 0.00 | 0.00 | 0.00 | 99 | 1016.5 |
| 20260831114316 | 20 | 122 | 0.0 | 0.0 | 0.00 | 0.00 | 0.00 | 99 | 1016.5 |
| 20260831113812 | 20 | 123 | 0.0 | 0.0 | 0.00 | 0.00 | 0.00 | 99 | 1016.3 |
| 20260831113312 | 20 | 123 | 0.0 | 0.0 | 0.00 | 0.00 | 0.00 | 99 | 1016.5 |
| 20260831112806 | 20 | 122 | 0.0 | 0.0 | 0.00 | 0.00 | 0.00 | 99 | 1016.4 |
| 20260831112301 | 20 | 122 | 0.0 | 0.0 | 0.00 | 0.00 | 0.00 | 99 | 1016.3 |
| 20260831111756 | 20 | 121 | 0.0 | 0.0 | 0.00 | 0.00 | 0.00 | 99 | 1016.3 |
| 20260831111253 | 20 | 122 | 0.0 | 0.0 | 0.00 | 0.00 | 0.00 | 99 | 1016.1 |
| 20260831110749 | 20 | 126 | 0.0 | 0.0 | 0.00 | 0.00 | 0.00 | 99 | 1015.9 |
| 20260831110243 | 20 | 125 | 0.0 | 0.0 | 0.00 | 0.00 | 0.00 | 99 | 1015.9 |
| 20260831105741 | 20 | 122 | 0.0 | 0.0 | 0.00 | 0.00 | 0.00 | 99 | 1016.0 |
| 20260831105237 | 20 | 121 | 0.0 | 0.0 | 0.00 | 0.00 | 0.00 | 99 | 1016.0 |
| 20260831104732 | 20 | 123 | 0.0 | 0.0 | 0.00 | 0.00 | 0.00 | 99 | 1016.0 |
| 20260831104229 | 20 | 125 | 1.6 | 1.6 | 0.00 | 0.00 | 0.00 | 99 | 1015.7 |
| 20260831103729 | 20 | 128 | 3.2 | 3.2 | 0.00 | 0.00 | 0.00 | 99 | 1015.7 |
| 20260831103225 | 20 | 125 | 0.0 | 0.0 | 0.00 | 0.00 | 0.00 | 99 | 1015.7 |
| 20260831102724 | 20 | 123 | 0.0 | 0.0 | 0.00 | 0.00 | 0.00 | 99 | 1015.8 |
| 20260831102219 | 20 | 124 | 0.0 | 0.0 | 0.00 | 0.00 | 0.00 | 99 | 1015.8 |
| 20260831101714 | 20 | 123 | 0.0 | 0.0 | 0.00 | 0.00 | 0.00 | 99 | 1015.7 |
| 20260831101210 | 20 | 123 | 0.0 | 0.0 | 0.00 | 0.00 | 0.00 | 99 | 1015.7 |
| 20260831100706 | 20 | 123 | 0.0 | 0.0 | 0.00 | 0.00 | 0.00 | 99 | 1015.7 |
| 20260831100202 | 20 | 123 | 0.0 | 0.0 | 0.00 | 0.00 | 0.00 | 99 | 1015.5 |
| 20260831095700 | 20 | 123 | 0.0 | 0.0 | 0.00 | 0.00 | 0.00 | 99 | 1015.7 |
| 20260831095155 | 20 | 126 | 1.6 | 1.6 | 0.00 | 0.00 | 0.00 | 99 | 1015.5 |
| 20260831094650 | 20 | 124 | 0.0 | 0.0 | 0.00 | 0.00 | 0.00 | 99 | 1015.5 |
| 20260831094146 | 20 | 124 | 0.0 | 0.0 | 0.00 | 0.00 | 0.00 | 99 | 1015.5 |
| 20260831093641 | 20 | 123 | 0.0 | 0.0 | 0.00 | 0.00 | 0.00 | 99 | 1015.7 |
| 20260831093138 | 20 | 122 | 0.0 | 0.0 | 0.00 | 0.00 | 0.00 | 99 | 1015.8 |
| 20260831092634 | 20 | 122 | 0.0 | 0.0 | 0.00 | 0.00 | 0.00 | 99 | 1015.8 |
| 20260831092129 | 20 | 122 | 0.0 | 0.0 | 0.00 | 0.00 | 0.00 | 99 | 1015.7 |
| 20260831091628 | 20 | 122 | 0.0 | 0.0 | 0.00 | 0.00 | 0.00 | 99 | 1015.4 |
| 20260831091124 | 20 | 122 | 0.0 | 0.0 | 0.00 | 0.00 | 0.00 | 99 | 1015.8 |
| 20260831090619 | 20 | 122 | 0.0 | 0.0 | 0.00 | 0.00 | 0.00 | 99 | 1015.4 |
| 20260831090115 | 20 | 122 | 0.0 | 0.0 | 0.00 | 0.00 | 0.00 | 99 | 1015.5 |
| 20260831085610 | 20 | 122 | 0.0 | 0.0 | 0.00 | 0.00 | 0.00 | 99 | 1015.4 |
| 20260831085106 | 20 | 121 | 0.0 | 0.0 | 0.00 | 0.00 | 0.00 | 99 | 1015.5 |
| 20260831084602 | 20 | 122 | 0.0 | 0.0 | 0.00 | 0.00 | 0.00 | 99 | 1015.5 |
| 20260831084058 | 20 | 121 | 0.0 | 0.0 | 0.00 | 0.00 | 0.00 | 99 | 1015.5 |
| 20260831083554 | 20 | 123 | 0.0 | 0.0 | 0.00 | 0.00 | 0.00 | 99 | 1015.5 |
| 20260831083048 | 20 | 123 | 0.0 | 0.0 | 0.00 | 0.00 | 0.00 | 99 | 1015.7 |
| 20260831082547 | 20 | 122 | 0.0 | 0.0 | 0.00 | 0.00 | 0.00 | 99 | 1015.7 |
| 20260831082043 | 20 | 123 | 0.0 | 0.0 | 0.00 | 0.00 | 0.00 | 99 | 1015.4 |
| 20260831081538 | 20 | 123 | 0.0 | 0.0 | 0.00 | 0.00 | 0.00 | 99 | 1015.4 |
| 20260831081034 | 20 | 122 | 0.0 | 0.0 | 0.00 | 0.00 | 0.00 | 99 | 1015.2 |
| 20260831080534 | 20 | 122 | 0.0 | 0.0 | 0.00 | 0.00 | 0.00 | 99 | 1015.3 |
| 20260831080030 | 20 | 122 | 0.0 | 0.0 | 0.00 | 0.00 | 0.00 | 99 | 1015.2 |
| 20260831075525 | 20 | 124 | 0.0 | 0.0 | 0.00 | 0.00 | 0.00 | 99 | 1015.1 |
| 20260831075021 | 20 | 124 | 0.0 | 0.0 | 0.00 | 0.00 | 0.00 | 99 | 1015.2 |
| 20260831074520 | 20 | 123 | 0.0 | 0.0 | 0.00 | 0.00 | 0.00 | 99 | 1015.0 |
| 20260831072724 | 20 | 122 | 0.0 | 0.0 | 0.00 | 0.00 | 0.00 | 99 | 1015.1 |
| 20260831072221 | 20 | 122 | 0.0 | 0.0 | 0.00 | 0.00 | 0.00 | 99 | 1015.1 |
| 20260831071720 | 20 | 122 | 0.0 | 0.0 | 0.00 | 0.00 | 0.00 | 99 | 1015.1 |
| 20260831070534 | 20 | 122 | 0.0 | 0.0 | 0.00 | 0.00 | 0.00 | 99 | 1015.2 |
| 20260831070029 | 20 | 122 | 0.0 | 0.0 | 0.00 | 0.00 | 0.00 | 99 | 1015.2 |
| 20260831065526 | 21 | 122 | 0.0 | 0.0 | 0.00 | 0.00 | 0.00 | 99 | 1015.3 |
| 20260831065021 | 21 | 122 | 0.0 | 0.0 | 0.00 | 0.00 | 0.00 | 99 | 1015.3 |
| 20260831063809 | 21 | 122 | 0.0 | 0.0 | 0.00 | 0.00 | 0.00 | 99 | 1015.3 |
| 20260831063303 | 21 | 122 | 0.0 | 0.0 | 0.00 | 0.00 | 0.00 | 99 | 1015.3 |
| 20260831062803 | 21 | 124 | 0.0 | 0.0 | 0.00 | 0.00 | 0.00 | 99 | 1015.3 |
| 20260831062258 | 21 | 124 | 0.0 | 0.0 | 0.00 | 0.00 | 0.00 | 99 | 1015.4 |
| 20260831061756 | 21 | 123 | 0.0 | 0.0 | 0.00 | 0.00 | 0.00 | 99 | 1015.4 |
| 20260831061251 | 21 | 123 | 0.0 | 0.0 | 0.00 | 0.00 | 0.00 | 99 | 1015.5 |
| 20260831060748 | 21 | 123 | 0.0 | 0.0 | 0.00 | 0.00 | 0.00 | 99 | 1015.3 |
| 20260831060247 | 21 | 123 | 0.0 | 0.0 | 0.00 | 0.00 | 0.00 | 99 | 1015.4 |
| 20260831055747 | 21 | 123 | 0.0 | 0.0 | 0.00 | 0.00 | 0.00 | 99 | 1015.5 |
| 20260831055242 | 21 | 123 | 0.0 | 0.0 | 0.00 | 0.00 | 0.00 | 99 | 1015.5 |
| 20260831054737 | 21 | 123 | 0.0 | 0.0 | 0.00 | 0.00 | 0.00 | 99 | 1015.7 |
| 20260831054232 | 21 | 123 | 0.0 | 0.0 | 0.00 | 0.00 | 0.00 | 99 | 1015.4 |
| 20260831053731 | 21 | 123 | 0.0 | 0.0 | 0.00 | 0.00 | 0.00 | 99 | 1015.4 |
| 20260831053230 | 21 | 123 | 0.0 | 0.0 | 0.00 | 0.00 | 0.00 | 99 | 1015.4 |
| 20260831052729 | 21 | 123 | 0.0 | 0.0 | 0.00 | 0.00 | 0.00 | 99 | 1015.8 |
| 20260831052223 | 21 | 123 | 0.0 | 0.0 | 0.00 | 0.00 | 0.00 | 99 | 1015.8 |
| 20260831051721 | 21 | 123 | 0.0 | 0.0 | 0.00 | 0.00 | 0.00 | 99 | 1015.5 |
| 20260831051220 | 21 | 123 | 0.0 | 0.0 | 0.00 | 0.00 | 0.00 | 99 | 1015.4 |
| 20260831050715 | 22 | 123 | 0.0 | 0.0 | 0.00 | 0.00 | 0.00 | 99 | 1015.5 |
| 20260831050214 | 21 | 123 | 0.0 | 0.0 | 0.00 | 0.00 | 0.00 | 99 | 1015.5 |
| 20260831045709 | 21 | 123 | 0.0 | 0.0 | 0.00 | 0.00 | 0.00 | 99 | 1015.7 |
| 20260831045204 | 22 | 123 | 0.0 | 0.0 | 0.00 | 0.00 | 0.00 | 99 | 1015.5 |
| 20260831044658 | 22 | 124 | 0.0 | 0.0 | 0.00 | 0.00 | 0.00 | 99 | 1015.7 |
| 20260831044153 | 22 | 123 | 0.0 | 0.0 | 0.00 | 0.00 | 0.00 | 99 | 1015.5 |
| 20260831043649 | 22 | 123 | 0.0 | 0.0 | 0.00 | 0.00 | 0.00 | 99 | 1015.8 |
| 20260831043144 | 22 | 123 | 0.0 | 0.0 | 0.00 | 0.00 | 0.00 | 99 | 1015.7 |
| 20260831042643 | 22 | 123 | 0.0 | 0.0 | 0.00 | 0.00 | 0.00 | 99 | 1015.9 |
| 20260831042138 | 22 | 123 | 0.0 | 0.0 | 0.00 | 0.00 | 0.00 | 99 | 1015.7 |
| 20260831041632 | 22 | 123 | 0.0 | 0.0 | 0.00 | 0.00 | 0.00 | 99 | 1015.5 |
| 20260831041127 | 22 | 123 | 0.0 | 0.0 | 0.00 | 0.00 | 0.00 | 99 | 1015.8 |
| 20260831040622 | 22 | 123 | 0.0 | 0.0 | 0.00 | 0.00 | 0.00 | 99 | 1015.9 |
| 20260831040121 | 22 | 125 | 0.0 | 0.0 | 0.00 | 0.00 | 0.00 | 99 | 1015.9 |
| 20260831035619 | 22 | 126 | 0.0 | 0.0 | 0.00 | 2.21 | 2.21 | 99 | 1015.9 |
| 20260831035114 | 22 | 125 | 0.0 | 0.0 | 0.00 | 2.21 | 2.21 | 99 | 1016.0 |
| 20260831034613 | 22 | 125 | 0.0 | 0.0 | 0.00 | 2.21 | 2.21 | 99 | 1016.1 |
| 20260831034109 | 22 | 125 | 0.0 | 0.0 | 0.00 | 2.21 | 2.21 | 99 | 1015.9 |
| 20260831033604 | 22 | 125 | 0.0 | 0.0 | 0.00 | 2.21 | 2.21 | 99 | 1016.2 |
| 20260831033059 | 22 | 125 | 0.0 | 0.0 | 0.00 | 2.21 | 2.21 | 99 | 1016.1 |
| 20260831032559 | 22 | 125 | 0.0 | 0.0 | 0.00 | 2.21 | 2.21 | 99 | 1016.0 |
| 20260831032054 | 22 | 125 | 0.0 | 0.0 | 0.00 | 2.21 | 2.21 | 99 | 1016.0 |
| 20260831031554 | 23 | 125 | 0.0 | 0.0 | 0.00 | 2.21 | 2.21 | 99 | 1015.9 |
| 20260831031054 | 22 | 125 | 0.0 | 0.0 | 0.00 | 2.21 | 2.21 | 99 | 1016.0 |
| 20260831030553 | 22 | 125 | 0.0 | 0.0 | 0.00 | 2.21 | 2.21 | 99 | 1015.9 |
| 20260831030052 | 23 | 125 | 0.0 | 0.0 | 0.00 | 2.21 | 2.21 | 99 | 1016.0 |
| 20260831025551 | 23 | 126 | 0.0 | 0.0 | 0.00 | 2.21 | 2.21 | 99 | 1016.1 |
| 20260831025046 | 23 | 123 | 0.0 | 0.0 | 0.00 | 2.21 | 2.21 | 99 | 1015.8 |
| 20260831024542 | 23 | 124 | 0.0 | 0.0 | 0.00 | 2.21 | 2.21 | 99 | 1016.2 |
| 20260831024040 | 23 | 122 | 0.0 | 0.0 | 0.00 | 2.21 | 2.21 | 99 | 1015.8 |
| 20260831023539 | 23 | 122 | 0.0 | 0.0 | 0.00 | 2.21 | 2.21 | 99 | 1015.7 |
| 20260831023033 | 23 | 122 | 0.0 | 0.0 | 0.00 | 2.21 | 2.21 | 99 | 1015.9 |
| 20260831022533 | 23 | 124 | 0.0 | 0.0 | 0.00 | 2.21 | 2.21 | 99 | 1015.8 |
| 20260831022028 | 23 | 123 | 0.0 | 0.0 | 0.00 | 2.21 | 2.21 | 99 | 1015.8 |
| 20260831021527 | 23 | 125 | 0.0 | 0.0 | 0.00 | 2.21 | 2.21 | 99 | 1016.0 |
| 20260831021023 | 23 | 125 | 0.0 | 0.0 | 0.00 | 2.21 | 2.21 | 99 | 1016.1 |
| 20260831020518 | 23 | 125 | 0.0 | 0.0 | 0.00 | 2.21 | 2.21 | 99 | 1015.8 |
| 20260831020013 | 23 | 125 | 0.0 | 0.0 | 0.00 | 2.21 | 2.21 | 99 | 1015.8 |
| 20260831015509 | 23 | 123 | 0.0 | 0.0 | 0.00 | 2.21 | 2.21 | 99 | 1015.9 |
| 20260831015004 | 23 | 123 | 0.0 | 0.0 | 0.00 | 2.21 | 2.21 | 99 | 1015.8 |
| 20260831014458 | 23 | 123 | 0.0 | 0.0 | 0.00 | 2.21 | 2.21 | 99 | 1015.9 |
| 20260831013953 | 23 | 124 | 0.0 | 0.0 | 0.00 | 2.21 | 2.21 | 99 | 1015.5 |
| 20260831013449 | 23 | 123 | 0.0 | 0.0 | 0.00 | 2.21 | 2.21 | 99 | 1015.9 |
| 20260831012943 | 23 | 123 | 0.0 | 0.0 | 0.00 | 2.21 | 2.21 | 99 | 1015.9 |
| 20260831012439 | 23 | 127 | 0.0 | 0.0 | 0.00 | 2.21 | 2.21 | 99 | 1015.8 |
| 20260831011938 | 23 | 127 | 0.0 | 0.0 | 0.00 | 2.21 | 2.21 | 99 | 1015.8 |
| 20260831011433 | 23 | 127 | 0.0 | 0.0 | 0.00 | 2.21 | 2.21 | 99 | 1015.8 |
| 20260831010929 | 23 | 127 | 0.0 | 0.0 | 0.00 | 2.21 | 2.21 | 99 | 1015.5 |
| 20260831010424 | 23 | 127 | 0.0 | 0.0 | 0.00 | 2.21 | 2.21 | 99 | 1015.7 |
| 20260831005919 | 23 | 127 | 0.0 | 0.0 | 0.00 | 2.21 | 2.21 | 99 | 1015.7 |
| 20260831005415 | 23 | 127 | 0.0 | 0.0 | 0.00 | 2.21 | 2.21 | 99 | 1015.2 |
| 20260831004909 | 23 | 127 | 0.0 | 0.0 | 0.00 | 2.21 | 2.21 | 99 | 1015.2 |
| 20260831004406 | 23 | 127 | 0.0 | 0.0 | 0.00 | 2.21 | 2.21 | 99 | 1015.2 |
| 20260831003901 | 23 | 127 | 0.0 | 0.0 | 0.00 | 2.21 | 2.21 | 99 | 1015.1 |
| 20260831003357 | 23 | 128 | 0.0 | 0.0 | 0.00 | 2.21 | 2.21 | 99 | 1015.0 |
| 20260831002856 | 23 | 127 | 0.0 | 0.0 | 0.00 | 2.21 | 2.21 | 99 | 1015.0 |
| 20260831002355 | 24 | 127 | 0.0 | 0.0 | 0.00 | 2.21 | 2.21 | 99 | 1015.3 |
| 20260831001851 | 24 | 127 | 0.0 | 0.0 | 0.00 | 2.21 | 2.21 | 99 | 1015.0 |
| 20260831001351 | 24 | 127 | 0.0 | 0.0 | 0.00 | 2.21 | 2.21 | 98 | 1015.2 |
| 20260831000849 | 24 | 127 | 0.0 | 0.0 | 0.00 | 2.21 | 2.21 | 98 | 1014.8 |
| 20260831000344 | 25 | 127 | 0.0 | 0.0 | 0.00 | 2.21 | 2.21 | 98 | 1014.8 |
| 20260830235842 | 25 | 127 | 0.0 | 0.0 | 0.00 | 2.21 | 2.21 | 98 | 1015.2 |
| 20260830235337 | 25 | 127 | 0.0 | 0.0 | 0.00 | 2.21 | 2.21 | 97 | 1015.0 |
| 20260830234833 | 25 | 127 | 0.0 | 0.0 | 0.00 | 2.21 | 2.21 | 97 | 1014.9 |
| 20260830234328 | 25 | 127 | 0.0 | 0.0 | 0.00 | 2.21 | 2.21 | 96 | 1014.9 |
| 20260830233824 | 26 | 127 | 0.0 | 0.0 | 0.00 | 2.21 | 2.21 | 96 | 1014.8 |
| 20260830233319 | 26 | 127 | 0.0 | 0.0 | 0.00 | 2.21 | 2.21 | 96 | 1014.8 |
| 20260830232815 | 26 | 127 | 0.0 | 0.0 | 0.00 | 2.21 | 2.21 | 96 | 1014.6 |
| 20260830232310 | 26 | 127 | 0.0 | 0.0 | 0.00 | 2.21 | 2.21 | 96 | 1014.5 |
| 20260830231806 | 26 | 127 | 0.0 | 0.0 | 0.00 | 2.21 | 2.21 | 96 | 1014.3 |
| 20260830231301 | 26 | 127 | 0.0 | 0.0 | 0.00 | 2.21 | 2.21 | 96 | 1014.4 |
| 20260830230755 | 26 | 127 | 0.0 | 0.0 | 0.00 | 2.21 | 2.21 | 96 | 1014.3 |
| 20260830230250 | 26 | 125 | 1.6 | 1.6 | 0.00 | 2.21 | 2.21 | 96 | 1014.3 |
| 20260830225750 | 26 | 127 | 1.6 | 1.6 | 0.00 | 2.21 | 2.21 | 96 | 1014.1 |
| 20260830225245 | 26 | 130 | 1.6 | 1.6 | 0.00 | 2.21 | 2.21 | 95 | 1014.3 |
| 20260830224744 | 26 | 125 | 1.6 | 1.6 | 0.00 | 2.21 | 2.21 | 95 | 1014.3 |
| 20260830224240 | 26 | 126 | 1.6 | 1.6 | 0.00 | 2.21 | 2.21 | 95 | 1014.4 |
| 20260830223736 | 26 | 128 | 3.2 | 3.2 | 0.00 | 2.21 | 2.21 | 95 | 1014.3 |
| 20260830223232 | 26 | 128 | 3.2 | 3.2 | 0.00 | 2.21 | 2.21 | 96 | 1014.5 |
| 20260830222726 | 26 | 132 | 3.2 | 3.2 | 0.00 | 2.21 | 2.21 | 96 | 1014.6 |
| 20260830222221 | 26 | 129 | 3.2 | 3.2 | 0.00 | 2.21 | 2.21 | 96 | 1014.6 |
| 20260830221717 | 26 | 128 | 4.8 | 4.8 | 0.00 | 2.21 | 2.21 | 95 | 1014.6 |
| 20260830221214 | 26 | 131 | 4.8 | 4.8 | 0.00 | 2.21 | 2.21 | 95 | 1014.6 |
| 20260830220708 | 26 | 128 | 1.6 | 1.6 | 0.00 | 2.21 | 2.21 | 96 | 1015.0 |
| 20260830220202 | 26 | 128 | 1.6 | 3.2 | 0.00 | 2.21 | 2.21 | 96 | 1014.9 |
| 20260830215701 | 26 | 127 | 1.6 | 1.6 | 0.00 | 2.21 | 2.21 | 96 | 1014.7 |
| 20260830215155 | 25 | 125 | 1.6 | 1.6 | 0.00 | 2.21 | 2.21 | 96 | 1014.9 |
| 20260830214651 | 25 | 127 | 1.6 | 1.6 | 0.00 | 2.21 | 2.21 | 96 | 1014.8 |
| 20260830214145 | 25 | 129 | 0.0 | 0.0 | 0.00 | 2.21 | 2.21 | 96 | 1015.0 |
| 20260830213644 | 25 | 134 | 3.2 | 3.2 | 0.00 | 2.21 | 2.21 | 97 | 1014.9 |
| 20260830213140 | 25 | 129 | 3.2 | 3.2 | 0.00 | 2.21 | 2.21 | 96 | 1014.8 |
| 20260830212636 | 25 | 121 | 0.0 | 0.0 | 0.00 | 2.21 | 2.21 | 95 | 1014.9 |
| 20260830212131 | 25 | 126 | 0.0 | 0.0 | 0.00 | 2.21 | 2.21 | 95 | 1014.9 |
| 20260830211626 | 26 | 128 | 3.2 | 3.2 | 0.00 | 2.21 | 2.21 | 94 | 1014.9 |
| 20260830211125 | 25 | 121 | 1.6 | 1.6 | 0.00 | 2.21 | 2.21 | 93 | 1015.0 |
| 20260830210621 | 25 | 108 | 3.2 | 3.2 | 0.00 | 2.21 | 2.21 | 94 | 1015.3 |
| 20260830210120 | 26 | 121 | 0.0 | 0.0 | 0.00 | 2.21 | 2.21 | 94 | 1015.4 |
| 20260830205617 | 26 | 121 | 0.0 | 0.0 | 0.00 | 2.21 | 2.21 | 93 | 1015.1 |
| 20260830205113 | 26 | 121 | 0.0 | 0.0 | 0.00 | 2.21 | 2.21 | 93 | 1015.1 |
| 20260830204612 | 26 | 119 | 0.0 | 0.0 | 0.00 | 2.21 | 2.21 | 93 | 1015.2 |
| 20260830204111 | 26 | 121 | 0.0 | 0.0 | 0.00 | 2.21 | 2.21 | 93 | 1015.3 |
| 20260830203608 | 26 | 120 | 0.0 | 0.0 | 0.00 | 2.21 | 2.21 | 93 | 1015.4 |
| 20260830203107 | 26 | 117 | 0.0 | 0.0 | 0.00 | 2.21 | 2.21 | 92 | 1015.7 |
| 20260830202602 | 26 | 114 | 0.0 | 1.6 | 0.00 | 2.21 | 2.21 | 91 | 1015.2 |
| 20260830202058 | 26 | 106 | 3.2 | 3.2 | 0.00 | 2.21 | 2.21 | 92 | 1015.8 |
| 20260830201557 | 26 | 123 | 0.0 | 0.0 | 0.00 | 2.21 | 2.21 | 90 | 1015.8 |
| 20260830201052 | 26 | 54 | 3.2 | 4.8 | 0.00 | 2.21 | 2.21 | 89 | 1015.9 |
| 20260830200548 | 27 | 133 | 1.6 | 1.6 | 0.00 | 2.21 | 2.21 | 87 | 1015.8 |
| 20260830200046 | 27 | 149 | 4.8 | 4.8 | 0.00 | 2.21 | 2.21 | 88 | 1015.8 |
| 20260830195542 | 26 | 141 | 3.2 | 3.2 | 0.00 | 2.21 | 2.21 | 93 | 1015.8 |
| 20260830195040 | 26 | 137 | 3.2 | 3.2 | 0.00 | 2.21 | 2.21 | 95 | 1015.5 |
| 20260830194539 | 25 | 137 | 1.6 | 3.2 | 0.00 | 2.21 | 2.21 | 95 | 1015.9 |
| 20260830194039 | 25 | 141 | 3.2 | 3.2 | 0.00 | 2.21 | 2.21 | 97 | 1015.9 |
| 20260830193538 | 24 | 179 | 6.4 | 8.0 | 0.00 | 2.21 | 2.21 | 97 | 1016.0 |
| 20260830193034 | 24 | 127 | 1.6 | 1.6 | 0.00 | 2.21 | 2.21 | 96 | 1016.1 |
| 20260830192529 | 24 | 130 | 0.0 | 0.0 | 0.00 | 2.21 | 2.21 | 96 | 1016.3 |
| 20260830192024 | 23 | 124 | 1.6 | 1.6 | 0.00 | 2.21 | 2.21 | 96 | 1016.2 |
| 20260830191519 | 23 | 130 | 3.2 | 3.2 | 0.00 | 2.21 | 2.21 | 96 | 1016.6 |
| 20260830191014 | 23 | 141 | 3.2 | 3.2 | 0.61 | 2.21 | 2.21 | 96 | 1016.6 |
| 20260830190509 | 22 | 130 | 4.8 | 4.8 | 1.98 | 2.18 | 2.18 | 96 | 1016.6 |
| 20260830190004 | 22 | 112 | 11.3 | 12.9 | 4.14 | 2.11 | 2.11 | 97 | 1016.8 |
| 20260830185458 | 22 | 116 | 1.6 | 3.2 | 6.25 | 1.88 | 1.88 | 92 | 1017.2 |
| 20260830184953 | 23 | 312 | 4.8 | 4.8 | 8.23 | 1.42 | 1.42 | 92 | 1017.4 |
| 20260830184452 | 23 | 5 | 11.3 | 17.7 | 3.66 | 0.66 | 0.66 | 91 | 1017.1 |
| 20260830183942 | 24 | 160 | 4.8 | 4.8 | 0.00 | 0.05 | 0.05 | 87 | 1016.8 |
| 20260830183441 | 25 | 215 | 6.4 | 8.0 | 0.00 | 0.05 | 0.05 | 87 | 1016.4 |
| 20260830182932 | 26 | 165 | 4.8 | 4.8 | 0.00 | 0.05 | 0.05 | 87 | 1016.3 |
| 20260830182427 | 26 | 130 | 1.6 | 1.6 | 0.13 | 0.05 | 0.05 | 82 | 1016.4 |
| 20260830181923 | 27 | 149 | 4.8 | 4.8 | 0.30 | 0.05 | 0.05 | 81 | 1016.6 |
| 20260830181418 | 30 | 100 | 1.6 | 3.2 | 0.18 | 0.03 | 0.03 | 75 | 1016.6 |
| 20260830180913 | 30 | 186 | 4.8 | 8.0 | 0.00 | 0.00 | 0.00 | 73 | 1016.3 |
| 20260830180412 | 31 | 133 | 8.0 | 11.3 | 0.00 | 0.00 | 0.00 | 70 | 1016.7 |
| 20260830175912 | 31 | 137 | 9.7 | 11.3 | 0.00 | 0.00 | 0.00 | 68 | 1016.7 |
| 20260830175412 | 32 | 126 | 11.3 | 14.5 | 0.00 | 0.00 | 0.00 | 69 | 1016.8 |
| 20260830174907 | 31 | 158 | 6.4 | 8.0 | 0.00 | 0.00 | 0.00 | 69 | 1016.8 |
| 20260830174402 | 31 | 104 | 4.8 | 4.8 | 0.00 | 0.00 | 0.00 | 69 | 1016.7 |
| 20260830173857 | 31 | 131 | 3.2 | 4.8 | 0.00 | 0.00 | 0.00 | 70 | 1016.9 |
| 20260830173353 | 31 | 149 | 4.8 | 8.0 | 0.00 | 0.00 | 0.00 | 72 | 1017.0 |
| 20260830172849 | 31 | 139 | 6.4 | 9.7 | 0.00 | 0.00 | 0.00 | 72 | 1017.1 |
| 20260830172345 | 31 | 139 | 6.4 | 8.0 | 0.00 | 0.00 | 0.00 | 71 | 1017.3 |
| 20260830171840 | 30 | 119 | 3.2 | 3.2 | 0.00 | 0.00 | 0.00 | 70 | 1017.4 |
| 20260830171336 | 30 | 99 | 9.7 | 11.3 | 0.00 | 0.00 | 0.00 | 71 | 1017.5 |
| 20260830170831 | 31 | 132 | 8.0 | 11.3 | 0.00 | 0.00 | 0.00 | 69 | 1017.5 |
| 20260830170330 | 30 | 129 | 6.4 | 9.7 | 0.00 | 0.00 | 0.00 | 72 | 1017.4 |
| 20260830165829 | 30 | 125 | 4.8 | 4.8 | 0.00 | 0.00 | 0.00 | 71 | 1017.5 |
| 20260830165325 | 30 | 116 | 3.2 | 3.2 | 0.00 | 0.00 | 0.00 | 73 | 1017.5 |
| 20260830164821 | 31 | 137 | 6.4 | 8.0 | 0.00 | 0.00 | 0.00 | 71 | 1017.8 |
| 20260830164317 | 31 | 150 | 6.4 | 8.0 | 0.00 | 0.00 | 0.00 | 70 | 1017.7 |
| 20260830163814 | 30 | 87 | 6.4 | 8.0 | 0.00 | 0.00 | 0.00 | 74 | 1017.5 |
| 20260830163308 | 30 | 117 | 3.2 | 3.2 | 0.00 | 0.00 | 0.00 | 71 | 1017.5 |
| 20260830162803 | 31 | 102 | 6.4 | 8.0 | 0.00 | 0.00 | 0.00 | 71 | 1017.9 |
| 20260830162300 | 30 | 124 | 1.6 | 1.6 | 0.00 | 0.00 | 0.00 | 71 | 1017.6 |
| 20260830161755 | 30 | 147 | 4.8 | 4.8 | 0.00 | 0.00 | 0.00 | 71 | 1017.8 |
| 20260830161254 | 30 | 103 | 4.8 | 8.0 | 0.00 | 0.00 | 0.00 | 73 | 1017.7 |
| 20260830160749 | 29 | 115 | 4.8 | 9.7 | 0.00 | 0.00 | 0.00 | 76 | 1017.8 |
| 20260830160249 | 28 | 133 | 6.4 | 9.7 | 0.00 | 0.00 | 0.00 | 75 | 1018.0 |
| 20260830155745 | 29 | 59 | 6.4 | 9.7 | 0.00 | 0.00 | 0.00 | 73 | 1017.7 |
| 20260830155241 | 30 | 310 | 8.0 | 9.7 | 0.00 | 0.00 | 0.00 | 71 | 1017.7 |
| 20260830154736 | 30 | 90 | 1.6 | 1.6 | 0.00 | 0.00 | 0.00 | 72 | 1017.7 |
| 20260830154232 | 30 | 131 | 1.6 | 1.6 | 0.00 | 0.00 | 0.00 | 71 | 1017.9 |
| 20260830153728 | 29 | 125 | 4.8 | 4.8 | 0.00 | 0.00 | 0.00 | 73 | 1017.9 |
| 20260830153224 | 30 | 120 | 4.8 | 4.8 | 0.00 | 0.00 | 0.00 | 72 | 1017.7 |
| 20260830152721 | 30 | 169 | 4.8 | 4.8 | 0.00 | 0.00 | 0.00 | 72 | 1017.9 |
| 20260830152216 | 28 | 166 | 4.8 | 4.8 | 0.00 | 0.00 | 0.00 | 77 | 1017.7 |
| 20260830151711 | 28 | 136 | 4.8 | 4.8 | 0.00 | 0.00 | 0.00 | 75 | 1017.9 |
| 20260830151210 | 28 | 147 | 4.8 | 4.8 | 0.00 | 0.00 | 0.00 | 76 | 1017.8 |
| 20260830150705 | 28 | 185 | 11.3 | 14.5 | 0.00 | 0.00 | 0.00 | 75 | 1017.9 |
| 20260830150205 | 28 | 102 | 6.4 | 9.7 | 0.00 | 0.00 | 0.00 | 76 | 1017.8 |
| 20260830145700 | 28 | 127 | 6.4 | 8.0 | 0.00 | 0.00 | 0.00 | 75 | 1018.0 |
| 20260830145155 | 28 | 57 | 8.0 | 9.7 | 0.00 | 0.00 | 0.00 | 75 | 1017.8 |
| 20260830144650 | 28 | 153 | 4.8 | 4.8 | 0.00 | 0.00 | 0.00 | 75 | 1017.8 |
| 20260830144146 | 28 | 131 | 4.8 | 4.8 | 0.00 | 0.00 | 0.00 | 76 | 1017.6 |
| 20260830143642 | 28 | 137 | 4.8 | 4.8 | 0.00 | 0.00 | 0.00 | 77 | 1017.6 |
| 20260830143140 | 27 | 125 | 3.2 | 3.2 | 0.00 | 0.00 | 0.00 | 78 | 1017.4 |
| 20260830142635 | 27 | 114 | 3.2 | 3.2 | 0.00 | 0.00 | 0.00 | 78 | 1017.5 |
| 20260830142130 | 27 | 137 | 6.4 | 8.0 | 0.00 | 0.00 | 0.00 | 78 | 1017.5 |
| 20260830141625 | 27 | 127 | 4.8 | 4.8 | 0.00 | 0.00 | 0.00 | 80 | 1017.2 |
| 20260830141120 | 26 | 152 | 4.8 | 4.8 | 0.00 | 0.00 | 0.00 | 81 | 1017.4 |
| 20260830140615 | 26 | 120 | 4.8 | 8.0 | 0.00 | 0.00 | 0.00 | 82 | 1017.5 |
| 20260830140115 | 26 | 119 | 4.8 | 8.0 | 0.00 | 0.00 | 0.00 | 83 | 1017.4 |
| 20260830135610 | 26 | 122 | 8.0 | 9.7 | 0.00 | 0.00 | 0.00 | 83 | 1017.2 |
| 20260830135105 | 25 | 128 | 4.8 | 4.8 | 0.00 | 0.00 | 0.00 | 85 | 1017.3 |
| 20260830134601 | 25 | 110 | 1.6 | 3.2 | 0.00 | 0.00 | 0.00 | 86 | 1017.5 |
| 20260830134056 | 25 | 108 | 4.8 | 4.8 | 0.00 | 0.00 | 0.00 | 87 | 1017.3 |
| 20260830133551 | 25 | 120 | 3.2 | 3.2 | 0.00 | 0.00 | 0.00 | 88 | 1017.3 |
| 20260830133046 | 24 | 121 | 4.8 | 4.8 | 0.00 | 0.00 | 0.00 | 88 | 1017.4 |
| 20260830132542 | 24 | 59 | 6.4 | 8.0 | 0.00 | 0.00 | 0.00 | 89 | 1017.5 |
| 20260830132037 | 23 | 119 | 3.2 | 3.2 | 0.00 | 0.00 | 0.00 | 91 | 1017.3 |
| 20260830131536 | 23 | 85 | 6.4 | 8.0 | 0.00 | 0.00 | 0.00 | 91 | 1017.4 |
| 20260830131031 | 23 | 117 | 4.8 | 8.0 | 0.00 | 0.00 | 0.00 | 93 | 1017.2 |
| 20260830130526 | 22 | 128 | 4.8 | 8.0 | 0.00 | 0.00 | 0.00 | 95 | 1017.4 |
| 20260830130022 | 22 | 135 | 4.8 | 4.8 | 0.00 | 0.00 | 0.00 | 97 | 1017.3 |
| 20260830125516 | 21 | 118 | 3.2 | 4.8 | 0.00 | 0.00 | 0.00 | 99 | 1017.5 |
| 20260830125015 | 21 | 124 | 0.0 | 0.0 | 0.00 | 0.00 | 0.00 | 99 | 1017.3 |
| 20260830124509 | 21 | 124 | 0.0 | 0.0 | 0.00 | 0.00 | 0.00 | 99 | 1017.3 |
| 20260830124005 | 21 | 125 | 1.6 | 3.2 | 0.00 | 0.00 | 0.00 | 99 | 1017.3 |
| 20260830123502 | 20 | 130 | 3.2 | 3.2 | 0.00 | 0.00 | 0.00 | 99 | 1017.4 |
| 20260830123001 | 20 | 123 | 0.0 | 0.0 | 0.00 | 0.00 | 0.00 | 99 | 1017.3 |
| 20260830122459 | 19 | 126 | 0.0 | 0.0 | 0.00 | 0.00 | 0.00 | 99 | 1017.3 |
| 20260830121954 | 19 | 125 | 0.0 | 0.0 | 0.00 | 0.00 | 0.00 | 99 | 1017.3 |
| 20260830121449 | 19 | 125 | 0.0 | 0.0 | 0.00 | 0.00 | 0.00 | 99 | 1017.1 |
| 20260830120943 | 18 | 125 | 0.0 | 0.0 | 0.00 | 0.00 | 0.00 | 99 | 1017.1 |
| 20260830120439 | 18 | 126 | 0.0 | 0.0 | 0.00 | 0.00 | 0.00 | 99 | 1017.2 |
| 20260830115936 | 18 | 125 | 0.0 | 0.0 | 0.00 | 0.00 | 0.00 | 99 | 1017.2 |